SP3VKM-10 Weather Reports


time (UTC)temp
F
wind
direction
speed
knots
gust
knots
rain 1hr
in
rain 24hr
in
rain mn
in
humidity
%
barometer
mb
20260905220110 32 0.0 0.0 0.00 0.33 0.33 1 1018.8
20260905212110 32 0.0 0.0 0.00 0.36 0.33 1 1018.5
20260905204110 32 0.0 0.0 0.00 0.36 0.33 1 1018.3
20260905202110 32 0.0 0.0 0.00 0.36 0.33 1 1018.0
20260905200111 32 0.0 0.0 0.00 0.36 0.33 1 1017.8
20260905194110 32 0.0 0.0 0.00 0.36 0.33 1 1017.7
20260905190110 32 0.0 0.0 0.00 0.36 0.33 1 1017.4
20260905184110 32 0.0 0.0 0.00 0.36 0.33 1 1017.1
20260905182110 32 0.0 0.0 0.00 0.36 0.33 1 1017.1
20260905180111 32 0.0 0.0 0.03 0.36 0.33 1 1017.0
20260905174110 32 0.0 0.0 0.03 0.36 0.33 1 1016.7
20260905172110 32 0.0 0.0 0.03 0.39 0.33 1 1016.4
20260905164110 32 0.0 0.0 0.06 0.53 0.30 1 1016.2
20260905160110 76 0.0 0.0 0.00 0.47 0.25 99 1016.0
20260905154111 76 0.0 0.0 0.11 0.47 0.25 99 1015.3
20260905152110 76 0.0 0.0 0.11 0.47 0.25 99 1015.5
20260905150111 76 0.0 0.0 0.11 0.47 0.25 99 1015.6
20260905142110 76 0.0 0.0 0.00 0.36 0.14 99 1015.3
20260905140111 76 0.0 0.0 0.00 0.36 0.14 99 1015.3
20260905134110 76 0.0 0.0 0.00 0.36 0.14 99 1015.2
20260905132110 76 0.0 0.0 0.00 0.36 0.14 99 1015.0
20260905130110 73 0.0 0.0 0.00 0.36 0.14 99 1014.9
20260905122111 32 0.0 0.0 0.00 0.36 0.14 1 1014.8
20260905120110 86 0.0 0.0 0.14 0.36 0.14 1 1015.0
20260905114110 74 0.0 0.0 0.14 0.36 0.14 76 1015.3
20260905112111 61 0.0 0.0 0.14 0.36 0.14 99 1015.4
20260905110110 66 0.0 0.0 0.00 0.22 0.00 20 1015.6
20260905104110 68 0.0 0.0 0.00 0.22 0.00 40 1015.0
20260905102110 76 0.0 0.0 0.00 0.22 0.00 1 1015.0
20260905100110 76 0.0 0.0 0.00 0.22 0.00 1 1014.7
20260905092110 80 0.0 0.0 0.00 0.22 0.00 1 1014.7
20260905090110 76 0.0 0.0 0.00 0.22 0.00 99 1014.6
20260905084111 76 0.0 0.0 0.00 0.22 0.00 99 1014.4
20260905082112 103 0.0 0.0 0.00 0.22 0.00 58 1014.3
20260905080110 76 0.0 0.0 0.00 0.22 0.00 99 1014.1
20260905074111 76 0.0 0.0 0.00 0.22 0.00 99 1013.9
20260905072110 76 0.0 0.0 0.00 0.22 0.00 99 1013.9
20260905064111 76 0.0 0.0 0.00 0.22 0.00 99 1013.5
20260905062110 76 0.0 0.0 0.00 0.22 0.00 99 1013.2
20260905060111 76 0.0 0.0 0.00 0.22 0.00 99 1013.1
20260905052109 76 0.0 0.0 0.00 0.22 0.00 99 1012.7
20260905050111 76 0.0 0.0 0.00 0.22 0.00 99 1012.5
20260905042110 76 0.0 0.0 0.00 0.22 0.00 99 1012.0
20260905040109 76 0.0 0.0 0.00 0.22 0.00 99 1011.8
20260905034110 76 0.0 0.0 0.00 0.22 0.00 99 1011.6
20260905032111 32 0.0 0.0 0.00 0.22 0.00 1 1011.5
20260905030111 32 0.0 0.0 0.00 0.22 0.00 1 1011.1
20260905024111 32 0.0 0.0 0.00 0.22 0.00 1 1011.0
20260905022111 32 0.0 0.0 0.00 0.22 0.00 1 1011.0
20260905020110 32 0.0 0.0 0.00 0.22 0.00 1 1010.9
20260905014110 32 0.0 0.0 0.00 0.22 0.00 1 1010.5
20260905012110 32 0.0 0.0 0.00 0.22 0.00 1 1010.5
20260905010110 32 0.0 0.0 0.00 0.22 0.00 1 1010.5
20260905002110 32 0.0 0.0 0.00 0.22 0.00 1 1009.6
20260905000111 32 0.0 0.0 0.00 0.22 0.00 1 1009.6
20260904234111 32 0.0 0.0 0.00 0.22 0.00 1 1009.5
20260904232111 32 0.0 0.0 0.00 0.22 0.00 1 1009.2
20260904230110 32 0.0 0.0 0.00 0.22 0.00 1 1008.8
20260904224111 32 0.0 0.0 0.00 0.22 0.00 1 1008.6